| time (UTC) | temp C | wind direction | speed KPH | gust KPH | rain 1hr cm | rain 24hr cm | rain mn cm | humidity % | barometer mb |
| 20260504130450 | 28 | 21 | 1.6 | 3.2 | 0.00 | 0.08 | 0.00 | 81 | 1015.2 |
| 20260504110450 | 25 | 0 | 0.0 | 0.0 | 0.00 | 0.08 | 0.00 | 94 | 1013.9 |
| 20260504100450 | 25 | 0 | 0.0 | 1.6 | 0.00 | 0.08 | 0.00 | 92 | 1013.8 |
| 20260504081450 | 25 | 305 | 4.8 | 6.4 | 0.00 | 0.10 | 0.00 | 92 | 1013.4 |
| 20260504080450 | 25 | 294 | 4.8 | 4.8 | 0.00 | 0.10 | 0.00 | 92 | 1013.3 |
| 20260504050450 | 25 | 357 | 1.6 | 8.0 | 0.00 | 0.13 | 0.00 | 93 | 1014.9 |
| 20260504045450 | 25 | 321 | 3.2 | 6.4 | 0.00 | 0.13 | 0.13 | 92 | 1015.3 |
| 20260504044450 | 25 | 287 | 4.8 | 6.4 | 0.00 | 0.13 | 0.13 | 92 | 1015.4 |
| 20260504043450 | 25 | 308 | 4.8 | 4.8 | 0.00 | 0.13 | 0.13 | 92 | 1015.2 |
| 20260504042450 | 25 | 282 | 9.7 | 9.7 | 0.00 | 0.13 | 0.13 | 92 | 1015.4 |
| 20260504041450 | 25 | 248 | 4.8 | 4.8 | 0.00 | 0.13 | 0.13 | 93 | 1015.3 |
| 20260504040450 | 25 | 341 | 1.6 | 6.4 | 0.00 | 0.13 | 0.13 | 93 | 1015.1 |
| 20260504035450 | 25 | 316 | 3.2 | 3.2 | 0.00 | 0.13 | 0.13 | 93 | 1015.3 |
| 20260504034450 | 25 | 239 | 3.2 | 3.2 | 0.00 | 0.13 | 0.13 | 93 | 1015.2 |
| 20260504033450 | 25 | 283 | 3.2 | 4.8 | 0.00 | 0.13 | 0.13 | 92 | 1015.5 |
| 20260504032450 | 26 | 272 | 1.6 | 3.2 | 0.00 | 0.15 | 0.13 | 92 | 1015.5 |
| 20260504031450 | 26 | 292 | 3.2 | 4.8 | 0.00 | 0.15 | 0.13 | 91 | 1015.3 |
| 20260504030450 | 26 | 288 | 1.6 | 3.2 | 0.00 | 0.15 | 0.13 | 91 | 1015.3 |
| 20260504025450 | 26 | 265 | 3.2 | 4.8 | 0.00 | 0.15 | 0.13 | 91 | 1015.3 |
| 20260504024450 | 26 | 317 | 1.6 | 1.6 | 0.00 | 0.15 | 0.13 | 91 | 1015.4 |
| 20260504023450 | 26 | 312 | 1.6 | 1.6 | 0.00 | 0.15 | 0.13 | 91 | 1015.5 |
| 20260504022450 | 26 | 0 | 0.0 | 0.0 | 0.00 | 0.15 | 0.13 | 90 | 1014.9 |
| 20260504021450 | 26 | 228 | 1.6 | 1.6 | 0.00 | 0.15 | 0.13 | 89 | 1015.0 |
| 20260504020450 | 26 | 0 | 0.0 | 1.6 | 0.00 | 0.15 | 0.13 | 89 | 1014.8 |
| 20260504015450 | 26 | 308 | 4.8 | 8.0 | 0.00 | 0.15 | 0.13 | 89 | 1014.8 |
| 20260504014450 | 26 | 325 | 6.4 | 6.4 | 0.00 | 0.15 | 0.13 | 89 | 1014.6 |
| 20260504013450 | 26 | 322 | 1.6 | 3.2 | 0.00 | 0.15 | 0.13 | 90 | 1014.5 |
| 20260504012450 | 26 | 344 | 1.6 | 1.6 | 0.00 | 0.15 | 0.13 | 91 | 1014.5 |
| 20260504011450 | 26 | 273 | 1.6 | 1.6 | 0.00 | 0.15 | 0.13 | 91 | 1014.4 |
| 20260504010450 | 26 | 231 | 1.6 | 3.2 | 0.00 | 0.15 | 0.13 | 91 | 1014.5 |
| 20260504005450 | 26 | 216 | 3.2 | 4.8 | 0.00 | 0.15 | 0.13 | 91 | 1014.5 |
| 20260504004450 | 26 | 285 | 1.6 | 3.2 | 0.00 | 0.15 | 0.13 | 91 | 1014.8 |
| 20260504003450 | 26 | 278 | 1.6 | 1.6 | 0.00 | 0.18 | 0.13 | 91 | 1014.7 |
| 20260504002450 | 26 | 0 | 0.0 | 1.6 | 0.00 | 0.18 | 0.13 | 92 | 1014.3 |
| 20260504001450 | 26 | 0 | 0.0 | 0.0 | 0.00 | 0.18 | 0.13 | 91 | 1014.4 |
| 20260504000450 | 26 | 250 | 1.6 | 1.6 | 0.00 | 0.18 | 0.13 | 91 | 1014.5 |
| 20260503235450 | 26 | 239 | 3.2 | 3.2 | 0.00 | 0.20 | 0.13 | 90 | 1014.1 |
| 20260503234450 | 26 | 242 | 1.6 | 1.6 | 0.00 | 0.20 | 0.13 | 90 | 1014.0 |
| 20260503233450 | 26 | 0 | 0.0 | 0.0 | 0.00 | 0.23 | 0.13 | 89 | 1014.2 |
| 20260503232450 | 26 | 340 | 1.6 | 1.6 | 0.00 | 0.25 | 0.13 | 89 | 1013.9 |
| 20260503231450 | 27 | 359 | 4.8 | 6.4 | 0.00 | 0.28 | 0.13 | 88 | 1013.8 |
| 20260503230450 | 27 | 301 | 1.6 | 3.2 | 0.00 | 0.28 | 0.13 | 87 | 1013.6 |
| 20260503225450 | 27 | 286 | 3.2 | 3.2 | 0.00 | 0.30 | 0.13 | 87 | 1013.2 |
| 20260503224450 | 27 | 306 | 3.2 | 3.2 | 0.00 | 0.38 | 0.13 | 86 | 1013.2 |
| 20260503223450 | 27 | 315 | 4.8 | 4.8 | 0.00 | 0.43 | 0.13 | 86 | 1013.3 |
| 20260503222450 | 27 | 304 | 1.6 | 3.2 | 0.00 | 0.51 | 0.13 | 86 | 1013.3 |
| 20260503221450 | 27 | 318 | 3.2 | 4.8 | 0.00 | 0.61 | 0.13 | 86 | 1013.2 |
| 20260503220450 | 27 | 344 | 3.2 | 3.2 | 0.00 | 0.71 | 0.13 | 85 | 1013.6 |
| 20260503215450 | 27 | 42 | 3.2 | 3.2 | 0.00 | 0.74 | 0.13 | 86 | 1013.3 |
| 20260503214450 | 27 | 320 | 3.2 | 3.2 | 0.00 | 0.79 | 0.13 | 85 | 1013.3 |
| 20260503213450 | 27 | 283 | 3.2 | 3.2 | 0.00 | 0.81 | 0.13 | 86 | 1013.1 |
| 20260503212450 | 27 | 275 | 4.8 | 4.8 | 0.00 | 0.97 | 0.13 | 86 | 1013.4 |
| 20260503211450 | 27 | 268 | 6.4 | 8.0 | 0.00 | 1.07 | 0.13 | 87 | 1013.5 |
| 20260503210450 | 26 | 285 | 4.8 | 6.4 | 0.00 | 1.22 | 0.13 | 87 | 1013.5 |
| 20260503205450 | 26 | 271 | 4.8 | 4.8 | 0.00 | 1.27 | 0.13 | 88 | 1013.6 |
| 20260503204450 | 26 | 343 | 4.8 | 6.4 | 0.00 | 1.30 | 0.13 | 88 | 1013.7 |
| 20260503203450 | 26 | 332 | 4.8 | 6.4 | 0.00 | 1.35 | 0.13 | 88 | 1014.0 |
| 20260503202450 | 26 | 311 | 4.8 | 6.4 | 0.00 | 1.45 | 0.13 | 88 | 1013.8 |
| 20260503201450 | 26 | 293 | 4.8 | 4.8 | 0.00 | 1.75 | 0.13 | 88 | 1014.0 |
| 20260503200450 | 26 | 338 | 1.6 | 4.8 | 0.00 | 2.11 | 0.13 | 88 | 1014.1 |
| 20260503195450 | 26 | 321 | 11.3 | 12.9 | 0.00 | 2.18 | 0.13 | 88 | 1013.9 |
| 20260503194450 | 26 | 342 | 8.0 | 12.9 | 0.00 | 2.18 | 0.13 | 87 | 1013.8 |
| 20260503193450 | 26 | 300 | 6.4 | 8.0 | 0.00 | 2.18 | 0.13 | 87 | 1014.2 |
| 20260503192450 | 26 | 327 | 6.4 | 9.7 | 0.03 | 2.18 | 0.13 | 87 | 1014.0 |
| 20260503191450 | 27 | 335 | 6.4 | 6.4 | 0.08 | 2.18 | 0.13 | 84 | 1013.9 |
| 20260503190450 | 27 | 332 | 3.2 | 8.0 | 0.08 | 2.16 | 0.13 | 85 | 1014.3 |
| 20260503185450 | 26 | 345 | 3.2 | 4.8 | 0.08 | 2.16 | 0.13 | 86 | 1014.7 |
| 20260503184450 | 26 | 12 | 6.4 | 11.3 | 0.08 | 2.16 | 0.10 | 86 | 1015.0 |
| 20260503183450 | 26 | 20 | 4.8 | 4.8 | 0.08 | 2.16 | 0.10 | 89 | 1015.0 |
| 20260503182450 | 26 | 349 | 3.2 | 4.8 | 0.05 | 2.16 | 0.10 | 88 | 1015.6 |
| 20260503181450 | 27 | 360 | 6.4 | 11.3 | 0.00 | 2.08 | 0.03 | 83 | 1015.5 |
| 20260503180450 | 30 | 55 | 12.9 | 16.1 | 0.00 | 2.08 | 0.03 | 78 | 1015.5 |
| 20260503175450 | 30 | 94 | 9.7 | 9.7 | 0.00 | 2.08 | 0.03 | 77 | 1015.5 |
| 20260503174450 | 31 | 126 | 9.7 | 11.3 | 0.00 | 2.08 | 0.03 | 75 | 1015.6 |
| 20260503173450 | 30 | 162 | 6.4 | 9.7 | 0.00 | 2.08 | 0.03 | 75 | 1015.2 |
| 20260503172450 | 30 | 230 | 9.7 | 14.5 | 0.00 | 2.08 | 0.03 | 75 | 1015.4 |
| 20260503171450 | 30 | 214 | 6.4 | 6.4 | 0.00 | 2.08 | 0.03 | 75 | 1015.4 |
| 20260503170450 | 30 | 206 | 14.5 | 16.1 | 0.00 | 2.08 | 0.03 | 75 | 1015.6 |
| 20260503150450 | 30 | 111 | 8.0 | 8.0 | 0.00 | 2.08 | 0.03 | 78 | 1016.5 |